| time (UTC) | temp C | wind direction | speed KPH | gust KPH | rain 1hr cm | rain 24hr cm | rain mn cm | humidity % | barometer mb |
| 20260831031503 | 30 | 40 | 3.2 | 11.3 | 0.00 | 0.00 | 0.00 | 62 | 1012.5 |
| 20260831030007 | 30 | 118 | 3.2 | 12.9 | 0.00 | 0.00 | 0.00 | 61 | 1012.1 |
| 20260831024504 | 31 | 103 | 4.8 | 14.5 | 0.00 | 0.00 | 0.00 | 61 | 1012.1 |
| 20260831023006 | 31 | 32 | 1.6 | 9.7 | 0.00 | 0.00 | 0.00 | 60 | 1011.8 |
| 20260831021504 | 31 | 31 | 1.6 | 12.9 | 0.00 | 0.00 | 0.00 | 58 | 1011.4 |
| 20260831020007 | 32 | 92 | 4.8 | 17.7 | 0.00 | 0.00 | 0.00 | 54 | 1011.4 |
| 20260831014504 | 31 | 53 | 3.2 | 8.0 | 0.00 | 0.00 | 0.00 | 51 | 1011.0 |
| 20260831013004 | 31 | 62 | 1.6 | 4.8 | 0.00 | 0.00 | 0.00 | 50 | 1010.6 |
| 20260831011503 | 32 | 67 | 1.6 | 4.8 | 0.00 | 0.00 | 0.00 | 50 | 1010.5 |
| 20260831010010 | 32 | 88 | 1.6 | 4.8 | 0.00 | 0.00 | 0.00 | 49 | 1010.6 |
| 20260831004504 | 33 | 74 | 1.6 | 9.7 | 0.00 | 0.00 | 0.00 | 47 | 1010.6 |
| 20260831003004 | 33 | 90 | 1.6 | 9.7 | 0.00 | 0.00 | 0.00 | 46 | 1010.5 |
| 20260831001506 | 34 | 60 | 3.2 | 11.3 | 0.00 | 0.00 | 0.00 | 45 | 1010.5 |
| 20260831000007 | 35 | 69 | 3.2 | 11.3 | 0.00 | 0.00 | 0.00 | 44 | 1010.4 |
| 20260830234508 | 35 | 126 | 3.2 | 9.7 | 0.00 | 0.00 | 0.00 | 42 | 1010.4 |
| 20260830233003 | 35 | 60 | 3.2 | 12.9 | 0.00 | 0.00 | 0.00 | 41 | 1010.5 |
| 20260830231503 | 35 | 75 | 3.2 | 16.1 | 0.00 | 0.00 | 0.00 | 40 | 1010.5 |
| 20260830230006 | 36 | 82 | 3.2 | 8.0 | 0.00 | 0.00 | 0.00 | 39 | 1010.5 |
| 20260830224503 | 36 | 43 | 3.2 | 9.7 | 0.00 | 0.00 | 0.00 | 39 | 1010.6 |
| 20260830223003 | 36 | 62 | 3.2 | 9.7 | 0.00 | 0.00 | 0.00 | 41 | 1010.7 |
| 20260830221503 | 36 | 43 | 3.2 | 11.3 | 0.00 | 0.00 | 0.00 | 41 | 1010.8 |
| 20260830220005 | 37 | 102 | 4.8 | 11.3 | 0.00 | 0.00 | 0.00 | 40 | 1010.7 |
| 20260830214503 | 36 | 198 | 1.6 | 12.9 | 0.00 | 0.00 | 0.00 | 41 | 1011.0 |
| 20260830213005 | 36 | 254 | 6.4 | 11.3 | 0.00 | 0.00 | 0.00 | 40 | 1011.1 |
| 20260830211503 | 36 | 86 | 3.2 | 14.5 | 0.00 | 0.00 | 0.00 | 41 | 1011.5 |
| 20260830210006 | 36 | 132 | 1.6 | 12.9 | 0.00 | 0.00 | 0.00 | 43 | 1011.9 |
| 20260830204504 | 36 | 110 | 4.8 | 12.9 | 0.00 | 0.00 | 0.00 | 43 | 1011.9 |
| 20260830203003 | 36 | 86 | 4.8 | 12.9 | 0.00 | 0.00 | 0.00 | 45 | 1012.1 |
| 20260830201503 | 36 | 75 | 4.8 | 14.5 | 0.00 | 0.00 | 0.00 | 46 | 1012.2 |
| 20260830200005 | 36 | 211 | 3.2 | 16.1 | 0.00 | 0.00 | 0.00 | 46 | 1012.4 |
| 20260830194503 | 35 | 40 | 1.6 | 16.1 | 0.00 | 0.00 | 0.00 | 49 | 1012.6 |
| 20260830193009 | 35 | 118 | 4.8 | 16.1 | 0.00 | 0.00 | 0.00 | 48 | 1012.9 |